Home > Weather > Fürstenfeld > Past weeks

Flag for Austria Past Weather in Fürstenfeld, Styria, Austria — Yesterday and Last 2 Weeks

Now
64 °F

Mild.


Feels Like: 64 °F
Forecast: 62 / 84 °F
Wind: 2 mph from West

Location: Murska Sobota

Current Time: Jul 29, 2016 at 4:20:40 AM

Latest Report: Jul 29, 2016 at 2:00 AM


Visibility: N/A

Pressure: 29.99 "Hg

Humidity: 97%

Dew Point: 64 °F

Location of FürstenfeldLocation

Past Weather in Fürstenfeld — Graph

°F

Fürstenfeld Temperature Yesterday

Maximum temperature yesterday: 79 °F (at 2:00 PM)
Minimum temperature yesterday: 66 °F (at 6:00 AM)
Average temperature yesterday: 70 °F

High & Low Weather Summary for the Past Weeks

 TemperatureHumidityPressure
High87 °F (Jul 23, 4:00 PM)99% (Jul 14, 2:00 AM)30.17 "Hg (Jul 14, 2:00 AM)
Low55 °F (Jul 15, 6:00 AM)37% (Jul 14, 5:00 PM)29.70 "Hg (Jul 14, 5:00 AM)
Average71 °F74%30.02 "Hg
* Reported Jul 14 2:00 AM — Jul 29 2:00 AM, Fürstenfeld, Weather by CustomWeather, © 2016

Note: Actual official high and low records may vary slightly from our data, if they occured in-between our weather recording intervals... More about our weather records

Advertising

Fürstenfeld Weather History for the Previous 24 Hours

Scroll right to see more
 ConditionsComfort  
Time TempWeatherWind HumidityBarometerVisibility
2:00 AM
Fri, Jul 29
64 °FMild.2 mph97%29.99 "HgN/A
12:00 AM65 °FMild.2 mph96%30.00 "HgN/A
11:00 PM
Thu, Jul 28
66 °FMild.1 mph95%30.00 "HgN/A
8:00 PM67 °FLight rain. Overcast.2 mph93%30.00 "Hg12 mi
6:00 PM69 °FMild.5 mph83%29.99 "HgN/A
5:00 PM76 °FMild.5 mph66%29.98 "HgN/A
2:00 PM79 °FPartly sunny.2 mph60%29.99 "Hg12 mi
1:00 PM77 °FWarm.3 mph63%30.01 "HgN/A
12:00 PM79 °FWarm.1 mph68%30.02 "HgN/A
11:00 AM76 °FMild.1 mph71%30.02 "HgN/A
10:00 AM72 °FMild.2 mph78%30.02 "HgN/A
9:00 AM70 °FMild.2 mph88%30.01 "HgN/A
8:00 AM68 °FOvercast.1 mph87%30.01 "Hg25 mi
7:00 AM67 °FOvercast.No wind95%30.00 "Hg25 mi
6:00 AM66 °FMild.1 mph96%30.00 "HgN/A
5:00 AM67 °FMild.2 mph96%29.98 "HgN/A
4:00 AM67 °FMild.2 mph94%29.97 "HgN/A
Weather by CustomWeather, © 2016

See weather overviewHow to use our weather pages